Regional Weather Roundup
Issued by NWS Sterling, VA

Home | Current Version | Previous Version | Graphics & Text | Print | Product List | Glossary On
Versions: 1 2 3 4 5 6 7 8 9 10 11 12 13 14 15 16 17 18 19 20 21 22 23 24 25 26 27 28 29 30 31 32 33 34 35 36 37 38 39 40 41 42 43 44 45 46 47 48 49 50
000
ASUS41 KLWX 211210
RWRLWX

REGIONAL WEATHER ROUNDUP
NATIONAL WEATHER SERVICE BALTIMORE MD/WASHINGTON DC
800 AM EDT TUE OCT 21 2014

Note: "FAIR" indicates few or no clouds below 12,000 feet
with no significant weather and/or obstructions to visibility.
 TC=TEMPERATURE CELSIUS

 * =Non NWS site. Station does not report precipitation (e.g. rain,
    snow, etc.), thunder, or fog.

DCZ001-MDZ009-015-VAZ040>042-051-053>054-211300-
WASHINGTON METRO

CITY           SKY/WX    TMP DP  RH WIND       PRES   REMARKS
WASHINGTON NAT PTCLDY    56  47  71 CALM      29.87S
DULLES         PTCLDY    43  43 100 CALM      29.87R
ANDREWS AFB    CLOUDY    49  47  92 CALM      29.86S
FT BELVOIR     PTCLDY    46  46 100 CALM      29.88R FOG
QUANTICO       PTCLDY    52  48  86 NW3       29.89R
COLLEGE PARK*  CLEAR     46  46 100 CALM      29.87R
LEESBURG*      CLEAR     46  46 100 CALM      29.88S
GAITHERSBURG*  CLEAR     45  43  93 CALM      29.90S

$$

MDZ006>007-011-014-211300-
BALTIMORE METRO

CITY           SKY/WX    TMP DP  RH WIND       PRES   REMARKS
BWI AIRPORT    PTCLDY    46  45  96 CALM      29.86S
MD SCIENCE CTR   N/A     54  49  83 MISG      29.87R
MARTIN STATE   PTCLDY    48  48 100 CALM      29.88R
ANNAPOLIS      PTCLDY    54  48  80 CALM      29.87R
FORT MEADE*    CLEAR     41  41 100 CALM      29.89S

$$

MDZ012-015-019>023-211300-
MARYLAND EASTERN SHORE

CITY           SKY/WX    TMP DP  RH WIND       PRES   REMARKS
OCEAN CITY     MOCLDY    60  56  86 SW8       29.90R
SALISBURY      MOCLDY    59  55  87 S6        29.89R
BAY BRIDGE AP*   N/A     55  46  71 W3        29.87S
CAMBRIDGE*     PTCLDY    54  52  94 SE3       29.86F
EASTON*        CLEAR     52  52 100 CALM      29.90S

$$

MDZ017>025-211300-
SOUTHERN MARYLAND

CITY           SKY/WX    TMP DP  RH WIND       PRES   REMARKS
PATUXENT RIVER MOCLDY    57  49  74 SW6       29.87R
ST INIGOES     PTCLDY    58  49  72 S3        29.87R
LEONARDTOWN*   MOCLDY    54  48  82 CALM      29.88S

$$

MDZ003>005-211300-
NORTH CENTRAL MARYLAND

CITY           SKY/WX    TMP DP  RH WIND       PRES   REMARKS
FREDERICK*     MOCLDY    50  46  87 CALM      29.89S
HAGERSTOWN APT PTCLDY    50  47  89 S5        29.86S
WESTMINSTER*   CLEAR     46  45  93 CALM      29.86S

$$

MDZ501>502-211300-
WESTERN MARYLAND

CITY           SKY/WX    TMP DP  RH WIND       PRES   REMARKS
OAKLAND*       CLOUDY    45 N/A N/A W7        29.87S FOG
CUMBERLAND*    CLOUDY    46  46 100 S3        29.91S VSB 3/4

$$

VAZ025>031-211300-
SHENANDOAH VALLEY

CITY           SKY/WX    TMP DP  RH WIND       PRES   REMARKS
WINCHESTER*    PTCLDY    54  45  71 W7        29.86S
FRONT ROYAL*   FAIR      50  46  87 S3        29.86R
LURAY*         CLOUDY    52  50  93 SW5       29.88R
NEW MARKET*    PTSUNNY   46  45  93 CALM      29.88S
STAUNTON*      MOCLDY    50  45  81 S3        29.91S
WAYNESBORO*    PTSUNNY   52  45  77 SW6       29.89S

$$

WVZ021-048>050-054>055-211300-
EASTERN WEST VIRGINIA PANHANDLE

CITY           SKY/WX    TMP DP  RH WIND       PRES   REMARKS
MARTINSBURG    PTCLDY    45  42  89 S5        29.87S FOG
PETERSBURG*    CLOUDY   N/A N/A N/A CALM      29.90R

$$

VAZ036>039-050-211300-
CENTRAL FOOTHILLS

CITY           SKY/WX    TMP DP  RH WIND       PRES   REMARKS
CHARLOTTESVILL PTCLDY    52  47  83 CALM      29.88S
CULPEPER*      PTCLDY    45  45 100 CALM      29.89R FOG
ORANGE*        PTCLDY    46  45  93 S3        29.89R
GORDONSVILLE*  FAIR      46  45  98 CALM      29.88R
WARRENTON*       N/A     41  41 100 CALM      29.87R FOG

$$

VAZ055>057-211300-
NORTH AND CENTRAL PIEDMONT

CITY           SKY/WX    TMP DP  RH WIND       PRES   REMARKS
FREDERICKSBRG* CLEAR     53  51  94 CALM      29.87R
STAFFORD*      CLEAR     47  47 100 CALM      29.91S FOG

$$

NCZ024-NYZ072-PAZ021-071-VAZ022-071-211300-
OTHER REGIONAL OBSERVATIONS

CITY           SKY/WX    TMP DP  RH WIND       PRES   REMARKS
NEW YORK CITY  PTCLDY    56  45  66 CALM      29.92S
PHILADELPHIA   PTCLDY    54  48  80 NE5       29.88R
PITTSBURGH     CLOUDY    50  49  96 W6        29.86R FOG
ROANOKE        PTCLDY    50  45  83 W7        29.94S
RICHMOND       PTCLDY    52  47  83 S3        29.89R
RALEIGH        PTCLDY    52  48  86 SW3       29.93S

$$

ANZ530>537-211300-
MARINE OBSERVATIONS

STATION/POSITION TIME  TEMP    WIND        PRES
                       AIR SEA DIR/SP/G
                 (UTC) (F)     (DEG/KT/KT) (MB)
THOMAS PT LIGHT  1200   56 63  290/  6/  8 1012.5R
BALT KEY BRIDGE  1200   55     270/  2/  3 1011.0S
COVE POINT       1200   58     270/  9/ 12 1011.2R
LEWISETTA        1200   58 62  230/  8/ 10 1011.2R
SOLOMONS ISLAND  1200      66                N/A
PINEY POINT      1200          280/  8/  9   N/A

$$




USA.gov is the U.S. government's official web portal to all federal, state and local government web resources and services.